Weather History for Marshall, MN

Change the Weather History Date:

Monday, February 4, 2013

  Actual Average Record
Temperature  
Mean Temperature 14 °F -  
Max Temperature 26 °F 25 °F 60 °F (2005)
Min Temperature 3 °F 4 °F -21 °F (1979)
Degree Days  
Heating Degree Days 50    
Moisture  
Dew Point 8 °F    
Average Humidity 77    
Maximum Humidity 92    
Minimum Humidity 67    
Precipitation  
Precipitation 0.00 in - - ()
Sea Level Pressure  
Sea Level Pressure 29.91 in    
Wind  
Wind Speed 7 mph (SSW)    
Max Wind Speed 22 mph    
Max Gust Speed 28 mph    
Visibility 10 miles    
Events      
Averages and records for this station are not official NWS values.
T = Trace of Precipitation, MM = Missing Value Source: NWS Daily Summary

Daily Weather History Graph

Daily Weather History Graph

Search for Another Location

Airport:

Trip Planner

Search our weather history database for the weather conditions in past years. The results will help you decide how hot, cold, wet, or windy it might be!

Date:

Astronomy

Feb. 04, 2013 Rise Set
Actual Time 7:37 AM CST 5:37 PM CST
Civil Twilight 7:07 AM CST 6:07 PM CST
Nautical Twilight 6:32 AM CST 6:42 PM CST
Astronomical Twilight 5:58 AM CST 7:16 PM CST
Moon 2:17 AM CST (2/4) 11:58 AM CST (2/4)
Length of Visible Light 11h 00m
Length of Day
9h 59m
Last Quarter, 37% of the Moon is Illuminated
Feb 4
Last Quarter
Feb 10
New
Feb 17
First Quarter
Feb 25
Full
Mar 4
Last Quarter

Hourly Weather History & Observations

Time (CST) Temp. Windchill Dew Point Humidity Pressure Visibility Wind Dir Wind Speed Gust Speed Precip Events Conditions
12:15 AM 12.2 °F -1.0 °F 8.6 °F 85% 29.93 in 10.0 mi NE 10.4 mph - N/A   Overcast
12:35 AM 12.2 °F -1.8 °F 10.4 °F 92% 29.93 in 10.0 mi NE 11.5 mph - N/A   Overcast
12:55 AM 12.2 °F -3.1 °F 6.8 °F 79% 29.93 in 9.0 mi NE 13.8 mph - N/A   Overcast
1:15 AM 12.2 °F -0.2 °F 6.8 °F 79% 29.93 in 10.0 mi NE 9.2 mph - N/A   Overcast
1:35 AM 12.2 °F -1.0 °F 6.8 °F 79% 29.93 in 10.0 mi NE 10.4 mph - N/A   Overcast
1:55 AM 12.2 °F -0.2 °F 6.8 °F 79% 29.94 in 10.0 mi NE 9.2 mph - N/A   Overcast
2:15 AM 12.2 °F 1.7 °F 6.8 °F 79% 29.94 in 10.0 mi NE 6.9 mph - N/A   Overcast
2:35 AM 10.4 °F -0.4 °F 8.6 °F 92% 29.95 in 10.0 mi NE 6.9 mph - N/A   Overcast
2:55 AM 10.4 °F -0.4 °F 6.8 °F 85% 29.96 in 10.0 mi NE 6.9 mph - N/A   Mostly Cloudy
3:15 AM 8.6 °F -1.3 °F 5.0 °F 85% 29.97 in 10.0 mi NE 5.8 mph - N/A   Scattered Clouds
4:55 AM 6.8 °F - 1.4 °F 79% 29.99 in 10.0 mi Calm Calm - N/A   Clear
5:15 AM 6.8 °F - 1.4 °F 79% 29.99 in 10.0 mi Calm Calm - N/A   Clear
5:35 AM 6.8 °F -0.1 °F 1.4 °F 79% 29.98 in 10.0 mi NE 3.5 mph - N/A   Clear
5:55 AM 6.8 °F -0.1 °F 1.4 °F 79% 30.00 in 10.0 mi NE 3.5 mph - N/A   Partly Cloudy
6:15 AM 5.0 °F - 1.4 °F 85% 30.00 in 10.0 mi Calm Calm - N/A   Mostly Cloudy
6:35 AM 5.0 °F - -0.4 °F 78% 30.01 in 10.0 mi Calm Calm - N/A   Scattered Clouds
6:55 AM 3.2 °F - -0.4 °F 85% 30.00 in 10.0 mi Calm Calm - N/A   Clear
7:15 AM 3.2 °F - -0.4 °F 85% 30.01 in 10.0 mi Calm Calm - N/A   Clear
7:35 AM 3.2 °F - -2.2 °F 78% 30.01 in 10.0 mi Calm Calm - N/A   Clear
7:55 AM 3.2 °F - -2.2 °F 78% 30.01 in 10.0 mi Calm Calm - N/A   Clear
8:15 AM 3.2 °F - -0.4 °F 85% 30.02 in 10.0 mi Calm Calm - N/A   Clear
8:35 AM 3.2 °F - -0.4 °F 85% 30.04 in 10.0 mi Calm Calm - N/A   Clear
8:55 AM 3.2 °F - -2.2 °F 78% 30.04 in 10.0 mi Calm Calm - N/A   Clear
9:15 AM 3.2 °F - -2.2 °F 78% 30.04 in 10.0 mi Calm Calm - N/A   Clear
9:35 AM 5.0 °F - -2.2 °F 72% 30.04 in 10.0 mi Calm Calm - N/A   Scattered Clouds
9:55 AM 5.0 °F - -2.2 °F 72% 30.03 in 10.0 mi Calm Calm - N/A   Mostly Cloudy
10:15 AM 6.8 °F - -0.4 °F 72% 30.03 in 10.0 mi Calm Calm - N/A   Scattered Clouds
10:35 AM 6.8 °F - -0.4 °F 72% 30.02 in 10.0 mi Calm Calm - N/A   Clear
10:55 AM 6.8 °F - -0.4 °F 72% 30.02 in - Calm Calm - N/A   Clear
11:15 AM 6.8 °F - -0.4 °F 72% 30.02 in - Calm Calm - N/A   Clear
11:35 AM 8.6 °F - 3.2 °F 79% 30.01 in - Calm Calm - N/A   Clear
11:55 AM 10.4 °F - 3.2 °F 73% 30.01 in 10.0 mi Calm Calm - N/A   Scattered Clouds
12:15 PM 10.4 °F 2.2 °F 3.2 °F 73% 30.01 in 10.0 mi West 4.6 mph - N/A   Overcast
12:35 PM 10.4 °F 4.0 °F 3.2 °F 73% 30.00 in 10.0 mi West 3.5 mph - N/A   Overcast
12:55 PM 12.2 °F - 6.8 °F 79% 30.00 in 10.0 mi Calm Calm - N/A   Overcast
1:15 PM 12.2 °F - 3.2 °F 67% 29.98 in 10.0 mi Calm Calm - N/A   Overcast
1:35 PM 14.0 °F 5.1 °F 6.8 °F 73% 29.97 in 10.0 mi SSW 5.8 mph - N/A   Overcast
1:55 PM 15.8 °F 7.2 °F 6.8 °F 68% 29.95 in 10.0 mi South 5.8 mph - N/A   Overcast
2:15 PM 17.6 °F 6.4 °F 8.6 °F 68% 29.92 in 10.0 mi South 9.2 mph - N/A   Overcast
2:35 PM 17.6 °F 3.7 °F 10.4 °F 73% 29.91 in 10.0 mi South 13.8 mph - N/A   Scattered Clouds
2:55 PM 17.6 °F 3.2 °F 10.4 °F 73% 29.91 in 10.0 mi SSW 15.0 mph - N/A   Clear
3:15 PM 17.6 °F 3.2 °F 10.4 °F 73% 29.91 in 10.0 mi SW 15.0 mph - N/A   Clear
3:35 PM 19.4 °F 7.2 °F 12.2 °F 74% 29.90 in 10.0 mi SW 11.5 mph - N/A   Clear
3:55 PM 19.4 °F 6.6 °F 12.2 °F 74% 29.89 in 10.0 mi SSW 12.7 mph - N/A   Clear
4:15 PM 19.4 °F 7.9 °F 12.2 °F 74% 29.88 in 10.0 mi SW 10.4 mph - N/A   Clear
4:35 PM 21.2 °F 10.1 °F 12.2 °F 68% 29.88 in 10.0 mi SW 10.4 mph - N/A   Clear
4:55 PM 19.4 °F 7.2 °F 12.2 °F 74% 29.86 in 10.0 mi SSW 11.5 mph - N/A   Clear
5:15 PM 19.4 °F 7.9 °F 12.2 °F 74% 29.85 in 10.0 mi SSW 10.4 mph - N/A   Clear
5:35 PM 19.4 °F 7.2 °F 12.2 °F 74% 29.83 in 10.0 mi SSW 11.5 mph - N/A   Scattered Clouds
5:55 PM 19.4 °F 6.6 °F 12.2 °F 74% 29.82 in 10.0 mi South 12.7 mph - N/A   Partly Cloudy
6:15 PM 19.4 °F 7.2 °F 14.0 °F 80% 29.80 in 10.0 mi SSW 11.5 mph - N/A   Partly Cloudy
6:35 PM 19.4 °F 6.0 °F 14.0 °F 80% 29.81 in 10.0 mi SSW 13.8 mph - N/A   Mostly Cloudy
6:55 PM 21.2 °F 10.9 °F 14.0 °F 74% 29.81 in 10.0 mi SSW 9.2 mph - N/A   Mostly Cloudy
7:15 PM 21.2 °F 13.6 °F 14.0 °F 74% 29.82 in 10.0 mi SW 5.8 mph - N/A   Overcast
7:35 PM 21.2 °F 10.1 °F 15.8 °F 80% 29.82 in 9.0 mi SW 10.4 mph - N/A   Overcast
7:55 PM 21.2 °F 8.9 °F 14.0 °F 74% 29.82 in 7.0 mi WSW 12.7 mph - N/A   Overcast
8:15 PM 21.2 °F 8.3 °F 15.8 °F 80% 29.81 in 5.0 mi SW 13.8 mph - N/A   Overcast
8:35 PM 21.2 °F 7.8 °F 15.8 °F 80% 29.78 in 10.0 mi SW 15.0 mph - N/A   Overcast
8:55 PM 21.2 °F 6.8 °F 15.8 °F 80% 29.76 in 10.0 mi SW 17.3 mph 20.7 mph N/A   Overcast
9:15 PM 21.2 °F 8.3 °F 15.8 °F 80% 29.75 in 10.0 mi SSW 13.8 mph - N/A   Overcast
9:35 PM 23.0 °F 12.4 °F 17.6 °F 80% 29.75 in 10.0 mi SSW 10.4 mph - N/A   Overcast
9:55 PM 23.0 °F 11.1 °F 17.6 °F 80% 29.73 in 10.0 mi South 12.7 mph 16.1 mph N/A   Overcast
10:15 PM 24.8 °F 12.4 °F 17.6 °F 74% 29.71 in 10.0 mi SSW 15.0 mph - N/A   Overcast
10:35 PM 24.8 °F 11.9 °F 17.6 °F 74% 29.70 in 10.0 mi SSW 16.1 mph - N/A   Overcast
10:55 PM 24.8 °F 16.1 °F 19.4 °F 80% 29.69 in 10.0 mi SW 8.1 mph - N/A   Overcast
11:15 PM 26.6 °F 14.3 °F 19.4 °F 74% 29.67 in 10.0 mi SW 16.1 mph 25.3 mph N/A   Overcast
11:35 PM 26.6 °F 14.7 °F 19.4 °F 74% 29.67 in 10.0 mi SW 15.0 mph 23.0 mph N/A   Mostly Cloudy
11:55 PM 26.6 °F 12.4 °F 17.6 °F 69% 29.65 in 10.0 mi SW 21.9 mph 27.6 mph N/A   Partly Cloudy